contact:dominique.lefevre@mio.osupytheas.fr, maurice.libes@osupytheas.fr, didier.mallarino@osupytheas.fr
Project:EMSO http://www.emso-fr.org/EMSO-France
Depth: 2436.0 m
Title:EMSO Ligure Ouest : Data MII capteur AQUADOPP
Date,Latitude,Longitude,X_East,Y_North,Z_Up,Amplitude_X,Amplitude_Y,Amplitude_Z,Batterie,SoundSpeed,Heading,Pitch,Roll,Pressure,TIS,Speed,Direction
, degrees North, degrees East, m.s-1, m.s-1,m.s-1, 1, 1, 1, Volt, m.s-1, degree, degree, degree, dbar, degree_C, m.s-1, degree
2021-11-12T00:04:03,42.805,6.029,0.012,-0.034,-0.013,102.0,101.0,100.0,13.3,1505.2,329.7,-0.8,1.8,2470.708,13.28,0.036,160.6
2021-11-12T00:07:03,42.805,6.029,0.023,-0.01,-0.012,102.0,101.0,100.0,13.4,1505.2,331.5,-0.8,1.8,2470.696,13.28,0.025,113.5
2021-11-12T00:10:03,42.805,6.029,0.014,-0.039,-0.018,102.0,102.0,98.0,13.4,1505.2,331.8,-0.7,1.8,2470.664,13.28,0.041,160.3
2021-11-12T00:13:03,42.805,6.029,0.028,-0.035,-0.014,103.0,100.0,100.0,13.4,1505.2,330.5,-0.8,1.8,2470.689,13.28,0.044,141.3
2021-11-12T00:16:03,42.805,6.029,0.028,-0.03,-0.016,101.0,100.0,101.0,13.4,1505.2,328.8,-0.7,1.8,2470.621,13.28,0.041,137.0
2021-11-12T00:19:03,42.805,6.029,0.027,-0.026,-0.026,102.0,101.0,100.0,13.4,1505.2,325.5,-0.8,1.8,2470.658,13.28,0.037,133.9
2021-11-12T00:22:03,42.805,6.029,0.027,-0.009,-0.002,101.0,101.0,101.0,13.4,1505.2,331.4,-0.7,1.8,2470.674,13.28,0.028,108.4
2021-11-12T00:25:03,42.805,6.029,0.028,-0.021,-0.022,101.0,102.0,100.0,13.4,1505.2,328.9,-0.7,1.8,2470.707,13.28,0.035,126.9
2021-11-12T00:28:03,42.805,6.029,0.009,-0.049,-0.039,101.0,101.0,101.0,13.4,1505.2,331.2,-0.7,1.8,2470.657,13.28,0.049,169.6
2021-11-12T00:31:03,42.805,6.029,0.057,-0.04,-0.007,101.0,100.0,101.0,13.4,1505.2,329.6,-0.8,1.8,2470.638,13.28,0.069,125.1
2021-11-12T00:34:03,42.805,6.029,0.049,-0.045,0.0,102.0,100.0,101.0,13.4,1505.2,331.7,-0.7,1.8,2470.631,13.28,0.066,132.6
2021-11-12T00:37:03,42.805,6.029,0.032,-0.016,-0.027,101.0,101.0,101.0,13.4,1505.2,325.6,-0.8,1.8,2470.688,13.28,0.035,116.6
2021-11-12T00:40:03,42.805,6.029,0.009,-0.036,-0.034,101.0,101.0,101.0,13.4,1505.2,329.4,-0.7,1.8,2470.641,13.28,0.037,166.0
2021-11-12T00:43:03,42.805,6.029,0.017,-0.032,-0.047,101.0,101.0,100.0,13.4,1505.2,326.8,-0.8,1.8,2470.69,13.28,0.036,152.0
2021-11-12T00:46:03,42.805,6.029,0.035,-0.042,-0.027,102.0,100.0,101.0,13.4,1505.2,331.8,-0.8,1.9,2470.64,13.28,0.054,140.2
2021-11-12T00:49:03,42.805,6.029,0.042,-0.046,-0.022,103.0,101.0,100.0,13.4,1505.2,328.9,-0.8,1.8,2470.607,13.28,0.062,137.6
2021-11-12T00:52:03,42.805,6.029,0.013,-0.01,0.011,104.0,102.0,100.0,13.4,1505.2,325.7,-0.7,1.8,2470.623,13.28,0.016,127.6
2021-11-12T00:55:03,42.805,6.029,0.022,-0.025,0.006,102.0,102.0,100.0,13.4,1505.2,330.4,-0.8,1.8,2470.621,13.28,0.033,138.7
2021-11-12T00:58:03,42.805,6.029,0.011,-0.041,-0.033,103.0,101.0,100.0,13.4,1505.2,327.3,-0.7,1.8,2470.601,13.28,0.042,165.0
2021-11-12T01:04:03,42.805,6.029,0.031,-0.028,0.002,102.0,102.0,101.0,13.4,1505.2,325.2,-0.7,1.8,2470.651,13.28,0.041,132.1
2021-11-12T01:07:03,42.805,6.029,0.031,-0.045,0.0,103.0,102.0,102.0,13.4,1505.2,330.8,-0.8,1.8,2470.635,13.28,0.054,145.4
2021-11-12T01:10:03,42.805,6.029,0.047,-0.031,-0.009,104.0,103.0,101.0,13.3,1505.2,328.4,-0.7,1.8,2470.625,13.28,0.056,123.4
2021-11-12T01:13:03,42.805,6.029,0.019,-0.028,0.009,101.0,101.0,100.0,13.3,1505.2,329.1,-0.8,1.8,2470.604,13.28,0.033,145.8
2021-11-12T01:16:03,42.805,6.029,0.026,-0.032,-0.044,101.0,101.0,101.0,13.3,1505.2,331.1,-0.8,1.8,2470.59,13.28,0.041,140.9
2021-11-12T01:19:03,42.805,6.029,0.0,-0.014,-0.028,101.0,101.0,101.0,13.3,1505.2,326.4,-0.8,1.9,2470.602,13.28,0.014,180.0
2021-11-12T01:22:03,42.805,6.029,0.025,-0.045,-0.037,102.0,100.0,100.0,13.4,1505.2,331.0,-0.7,1.8,2470.625,13.28,0.051,150.9
2021-11-12T01:25:03,42.805,6.029,0.027,-0.038,-0.024,101.0,101.0,100.0,13.3,1505.2,325.8,-0.7,1.8,2470.591,13.28,0.046,144.6
2021-11-12T01:28:03,42.805,6.029,0.022,-0.028,-0.013,102.0,102.0,100.0,13.4,1505.2,329.2,-0.8,1.8,2470.596,13.28,0.035,141.8
2021-11-12T01:31:03,42.805,6.029,0.033,-0.039,-0.044,101.0,101.0,101.0,13.4,1505.2,328.2,-0.8,1.8,2470.594,13.28,0.051,139.8
2021-11-12T01:34:03,42.805,6.029,0.016,-0.025,-0.016,102.0,101.0,100.0,13.4,1505.2,330.2,-0.8,1.8,2470.577,13.28,0.029,147.4
2021-11-12T01:37:03,42.805,6.029,0.033,-0.04,-0.031,102.0,101.0,99.0,13.4,1505.2,325.5,-0.8,1.8,2470.56,13.28,0.051,140.5
2021-11-12T01:40:03,42.805,6.029,0.012,-0.037,0.0,102.0,101.0,100.0,13.4,1505.2,325.2,-0.8,1.8,2470.539,13.28,0.038,162.0
2021-11-12T01:43:03,42.805,6.029,0.015,-0.034,0.001,101.0,100.0,101.0,13.4,1505.2,328.4,-0.7,1.8,2470.543,13.28,0.037,156.2
2021-11-12T01:46:03,42.805,6.029,0.015,-0.029,-0.047,101.0,101.0,101.0,13.4,1505.2,326.8,-0.8,1.8,2470.591,13.28,0.032,152.6
2021-11-12T01:49:03,42.805,6.029,0.022,-0.021,-0.013,101.0,102.0,100.0,13.4,1505.2,328.8,-0.7,1.8,2470.538,13.28,0.03,133.7
2021-11-12T01:52:03,42.805,6.029,-0.001,-0.028,-0.004,101.0,102.0,101.0,13.4,1505.2,329.0,-0.7,1.8,2470.586,13.28,0.028,182.0
2021-11-12T01:55:03,42.805,6.029,-0.001,-0.016,-0.007,100.0,101.0,100.0,13.3,1505.2,326.5,-0.8,1.8,2470.607,13.28,0.016,183.6
2021-11-12T01:58:03,42.805,6.029,0.024,-0.03,-0.036,100.0,102.0,100.0,13.4,1505.2,327.6,-0.8,1.8,2470.619,13.28,0.038,141.3
2021-11-12T02:04:03,42.805,6.029,0.005,-0.045,-0.013,100.0,101.0,100.0,13.4,1505.2,329.8,-0.8,1.8,2470.606,13.28,0.045,173.7
2021-11-12T02:07:03,42.805,6.029,0.013,-0.01,-0.011,101.0,101.0,101.0,13.4,1505.2,327.3,-0.8,1.8,2470.547,13.28,0.016,127.6
2021-11-12T02:10:03,42.805,6.029,0.027,-0.046,-0.006,102.0,101.0,100.0,13.3,1505.2,331.4,-0.7,1.8,2470.562,13.28,0.053,149.6
2021-11-12T02:13:03,42.805,6.029,0.03,-0.023,-0.022,101.0,101.0,99.0,13.4,1505.2,330.4,-0.7,1.8,2470.593,13.28,0.037,127.5
2021-11-12T02:16:03,42.805,6.029,0.027,-0.026,-0.042,101.0,101.0,101.0,13.4,1505.2,331.4,-0.7,1.8,2470.594,13.28,0.037,133.9
2021-11-12T02:19:03,42.805,6.029,0.022,-0.041,0.001,99.0,103.0,100.0,13.3,1505.2,327.8,-0.7,1.8,2470.634,13.28,0.046,151.8
2021-11-12T02:22:03,42.805,6.029,0.023,-0.017,-0.017,101.0,101.0,100.0,13.4,1505.2,331.1,-0.7,1.8,2470.642,13.28,0.028,126.5
2021-11-12T02:25:03,42.805,6.029,0.01,-0.018,-0.032,102.0,101.0,100.0,13.4,1505.2,326.4,-0.7,1.8,2470.596,13.28,0.02,150.9
2021-11-12T02:28:03,42.805,6.029,-0.002,-0.013,-0.027,101.0,101.0,100.0,13.4,1505.2,326.9,-0.8,1.8,2470.61,13.28,0.013,188.7
2021-11-12T02:31:03,42.805,6.029,-0.023,0.012,-0.03,100.0,101.0,100.0,13.4,1505.2,328.3,-0.7,1.8,2470.618,13.28,0.025,297.6
2021-11-12T02:34:03,42.805,6.029,0.014,-0.034,-0.027,102.0,101.0,100.0,13.4,1505.2,331.4,-0.8,1.8,2470.603,13.28,0.036,157.6
2021-11-12T02:37:03,42.805,6.029,0.021,-0.006,0.002,100.0,101.0,101.0,13.4,1505.2,325.5,-0.8,1.8,2470.604,13.28,0.021,105.9
2021-11-12T02:40:03,42.805,6.029,0.05,-0.054,-0.051,102.0,100.0,100.0,13.4,1505.2,329.5,-0.7,1.8,2470.588,13.28,0.073,137.2
2021-11-12T02:43:03,42.805,6.029,0.001,-0.023,-0.013,100.0,101.0,101.0,13.4,1505.2,330.7,-0.7,1.8,2470.618,13.28,0.023,177.5
2021-11-12T02:46:03,42.805,6.029,0.038,-0.038,-0.022,101.0,101.0,100.0,13.4,1505.2,328.2,-0.7,1.8,2470.607,13.28,0.053,135.0
2021-11-12T02:49:03,42.805,6.029,0.028,-0.001,0.025,101.0,102.0,100.0,13.4,1505.2,328.5,-0.8,1.8,2470.64,13.28,0.028,92.0
2021-11-12T02:52:03,42.805,6.029,0.032,-0.031,-0.02,102.0,100.0,100.0,13.3,1505.2,330.0,-0.8,1.8,2470.616,13.28,0.044,134.1
2021-11-12T02:55:03,42.805,6.029,0.036,-0.046,-0.014,99.0,100.0,101.0,13.4,1505.2,327.3,-0.7,1.8,2470.62,13.28,0.058,142.0
2021-11-12T02:58:03,42.805,6.029,0.025,-0.039,-0.014,102.0,102.0,101.0,13.4,1505.2,329.3,-0.7,1.9,2470.657,13.28,0.046,147.3
2021-11-12T03:04:03,42.805,6.029,0.019,-0.034,-0.027,101.0,101.0,101.0,13.4,1505.2,327.1,-0.8,1.8,2470.686,13.28,0.038,150.8
2021-11-12T03:07:03,42.805,6.029,-0.001,-0.012,-0.022,101.0,101.0,101.0,13.4,1505.2,330.2,-0.8,1.8,2470.636,13.28,0.012,184.8
2021-11-12T03:10:03,42.805,6.029,0.026,-0.031,-0.015,101.0,101.0,100.0,13.4,1505.2,325.5,-0.8,1.8,2470.683,13.28,0.04,140.0
2021-11-12T03:13:03,42.805,6.029,0.034,-0.039,-0.013,102.0,101.0,101.0,13.4,1505.2,328.6,-0.8,1.8,2470.658,13.28,0.051,138.9
2021-11-12T03:16:03,42.805,6.029,0.019,-0.027,-0.016,103.0,101.0,101.0,13.4,1505.2,329.5,-0.8,1.8,2470.629,13.28,0.033,144.9
2021-11-12T03:19:03,42.805,6.029,0.018,-0.03,-0.012,100.0,100.0,101.0,13.4,1505.2,331.1,-0.8,1.8,2470.634,13.28,0.034,149.0
2021-11-12T03:22:03,42.805,6.029,0.022,-0.018,-0.033,101.0,101.0,102.0,13.4,1505.2,327.2,-0.8,1.8,2470.664,13.28,0.028,129.3
2021-11-12T03:25:03,42.805,6.029,0.025,-0.054,-0.038,102.0,101.0,101.0,13.4,1505.2,325.3,-0.8,1.8,2470.633,13.28,0.059,155.2
2021-11-12T03:28:03,42.805,6.029,0.026,-0.03,-0.029,103.0,102.0,100.0,13.3,1505.2,325.6,-0.7,1.8,2470.651,13.28,0.039,139.1
2021-11-12T03:31:03,42.805,6.029,0.003,-0.012,-0.011,102.0,101.0,101.0,13.4,1505.2,326.4,-0.7,1.8,2470.652,13.28,0.012,166.0
2021-11-12T03:34:03,42.805,6.029,0.052,-0.027,-0.011,101.0,101.0,101.0,13.3,1505.2,331.3,-0.7,1.8,2470.62,13.28,0.058,117.4
2021-11-12T03:37:03,42.805,6.029,0.023,-0.016,0.003,101.0,101.0,102.0,13.4,1505.2,328.5,-0.7,1.8,2470.618,13.28,0.028,124.8
2021-11-12T03:40:03,42.805,6.029,0.021,-0.035,-0.04,102.0,101.0,101.0,13.4,1505.2,324.8,-0.8,1.8,2470.648,13.28,0.04,149.0
2021-11-12T03:43:03,42.805,6.029,0.009,-0.046,0.012,102.0,100.0,100.0,13.4,1505.2,327.8,-0.8,1.9,2470.661,13.28,0.046,168.9
2021-11-12T03:46:03,42.805,6.029,0.021,-0.021,0.009,100.0,101.0,100.0,13.3,1505.2,325.8,-0.8,1.8,2470.618,13.28,0.029,135.0
2021-11-12T03:49:03,42.805,6.029,0.016,-0.039,-0.002,101.0,101.0,101.0,13.4,1505.2,330.8,-0.7,1.9,2470.635,13.28,0.042,157.7
2021-11-12T03:52:03,42.805,6.029,0.03,-0.043,-0.019,102.0,100.0,101.0,13.4,1505.2,328.1,-0.7,1.8,2470.589,13.28,0.052,145.1
2021-11-12T03:55:03,42.805,6.029,0.005,-0.014,0.007,102.0,101.0,100.0,13.4,1505.2,331.1,-0.7,1.8,2470.624,13.28,0.014,160.4
2021-11-12T03:58:03,42.805,6.029,0.035,-0.031,0.013,103.0,99.0,101.0,13.4,1505.2,326.1,-0.7,1.8,2470.616,13.28,0.046,131.5
2021-11-12T04:04:03,42.805,6.029,0.038,-0.028,-0.004,103.0,99.0,100.0,13.4,1505.2,329.3,-0.8,1.8,2470.698,13.28,0.047,126.4
2021-11-12T04:07:03,42.805,6.029,0.037,-0.045,-0.013,102.0,102.0,99.0,13.4,1505.2,327.5,-0.8,1.8,2470.656,13.28,0.058,140.6
2021-11-12T04:10:03,42.805,6.029,0.023,-0.028,0.003,102.0,101.0,99.0,13.4,1505.2,326.7,-0.8,1.8,2470.68,13.28,0.036,140.6
2021-11-12T04:13:03,42.805,6.029,0.025,-0.042,0.0,100.0,101.0,100.0,13.3,1505.2,330.7,-0.7,1.8,2470.712,13.28,0.048,149.2
2021-11-12T04:16:03,42.805,6.029,0.03,-0.03,-0.017,100.0,101.0,100.0,13.3,1505.2,330.8,-0.8,1.8,2470.661,13.28,0.042,135.0
2021-11-12T04:19:03,42.805,6.029,0.041,-0.038,0.009,101.0,100.0,100.0,13.3,1505.2,326.7,-0.7,1.8,2470.65,13.28,0.055,132.8
2021-11-12T04:22:03,42.805,6.029,0.04,-0.043,0.005,102.0,99.0,99.0,13.3,1505.2,326.6,-0.7,1.8,2470.664,13.28,0.058,137.1
2021-11-12T04:25:03,42.805,6.029,0.007,-0.03,0.0,101.0,101.0,100.0,13.4,1505.2,325.1,-0.8,1.8,2470.645,13.28,0.03,166.9
2021-11-12T04:28:03,42.805,6.029,0.045,-0.034,0.025,101.0,101.0,100.0,13.4,1505.2,328.2,-0.7,1.9,2470.647,13.28,0.056,127.1
2021-11-12T04:31:03,42.805,6.029,0.026,-0.033,-0.03,102.0,102.0,99.0,13.4,1505.2,329.7,-0.8,1.8,2470.651,13.28,0.042,141.8
2021-11-12T04:34:03,42.805,6.029,0.036,-0.033,0.018,101.0,101.0,100.0,13.4,1505.2,328.0,-0.8,1.8,2470.625,13.28,0.048,132.5
2021-11-12T04:37:03,42.805,6.029,0.041,-0.037,-0.009,100.0,100.0,100.0,13.4,1505.2,324.7,-0.8,1.8,2470.677,13.28,0.055,132.1
2021-11-12T04:40:03,42.805,6.029,0.019,-0.029,-0.003,100.0,101.0,100.0,13.4,1505.2,331.0,-0.7,1.8,2470.644,13.28,0.034,146.8
2021-11-12T04:43:03,42.805,6.029,0.007,-0.028,-0.008,101.0,101.0,101.0,13.3,1505.2,329.5,-0.8,1.8,2470.687,13.28,0.028,166.0
2021-11-12T04:46:03,42.805,6.029,0.014,-0.054,-0.011,101.0,101.0,100.0,13.4,1505.2,329.5,-0.7,1.8,2470.632,13.28,0.055,165.5
2021-11-12T04:49:03,42.805,6.029,0.034,-0.031,-0.005,103.0,102.0,99.0,13.4,1505.2,327.0,-0.7,1.8,2470.64,13.28,0.046,132.4
2021-11-12T04:52:03,42.805,6.029,0.025,-0.037,-0.012,101.0,101.0,101.0,13.4,1505.2,329.6,-0.8,1.8,2470.636,13.28,0.044,146.0
2021-11-12T04:55:03,42.805,6.029,0.031,-0.034,-0.009,102.0,100.0,100.0,13.4,1505.2,326.7,-0.7,1.8,2470.63,13.28,0.046,137.6
2021-11-12T04:58:03,42.805,6.029,0.036,-0.029,-0.026,102.0,101.0,100.0,13.4,1505.2,328.9,-0.7,1.8,2470.629,13.28,0.046,128.9
2021-11-12T05:04:03,42.805,6.029,0.018,-0.04,0.015,101.0,100.0,100.0,13.4,1505.2,327.0,-0.8,1.8,2470.671,13.28,0.043,155.8
2021-11-12T05:07:03,42.805,6.029,0.017,-0.026,0.015,100.0,102.0,100.0,13.3,1505.2,327.9,-0.7,1.8,2470.673,13.28,0.031,146.8
2021-11-12T05:10:03,42.805,6.029,0.012,-0.056,-0.021,102.0,101.0,100.0,13.4,1505.2,327.3,-0.7,1.9,2470.664,13.28,0.057,167.9
2021-11-12T05:13:03,42.805,6.029,0.008,-0.034,-0.009,101.0,100.0,100.0,13.3,1505.2,327.1,-0.7,1.8,2470.648,13.28,0.034,166.8
2021-11-12T05:16:03,42.805,6.029,0.028,-0.029,0.0,101.0,101.0,100.0,13.3,1505.2,330.8,-0.8,1.8,2470.632,13.28,0.04,136.0
2021-11-12T05:19:03,42.805,6.029,0.018,-0.034,-0.037,102.0,101.0,100.0,13.4,1505.2,327.3,-0.8,1.8,2470.638,13.28,0.038,152.1
2021-11-12T05:22:03,42.805,6.029,0.025,-0.039,-0.04,102.0,102.0,99.0,13.3,1505.2,327.1,-0.7,1.8,2470.648,13.28,0.046,147.3
2021-11-12T05:25:03,42.805,6.029,0.019,-0.027,-0.003,101.0,101.0,100.0,13.4,1505.2,329.5,-0.8,1.8,2470.648,13.28,0.033,144.9
2021-11-12T05:28:03,42.805,6.029,0.029,-0.025,-0.004,101.0,100.0,101.0,13.4,1505.2,327.2,-0.7,1.8,2470.645,13.28,0.038,130.8
2021-11-12T05:31:03,42.805,6.029,0.043,-0.027,0.0,100.0,102.0,100.0,13.4,1505.2,330.9,-0.8,1.8,2470.642,13.28,0.05,122.1
2021-11-12T05:34:03,42.805,6.029,0.013,-0.034,0.004,101.0,101.0,100.0,13.4,1505.2,331.6,-0.8,1.8,2470.631,13.28,0.036,159.1
2021-11-12T05:37:03,42.805,6.029,0.031,-0.066,-0.01,102.0,101.0,99.0,13.3,1505.2,330.9,-0.8,1.8,2470.634,13.28,0.072,154.8
2021-11-12T05:40:03,42.805,6.029,0.002,-0.038,-0.016,101.0,101.0,100.0,13.3,1505.2,331.2,-0.8,1.8,2470.649,13.28,0.038,177.0
2021-11-12T05:43:03,42.805,6.029,-0.002,-0.037,-0.028,101.0,102.0,101.0,13.3,1505.2,328.5,-0.7,1.8,2470.643,13.28,0.037,183.1
2021-11-12T05:46:03,42.805,6.029,0.048,-0.037,-0.016,101.0,101.0,100.0,13.4,1505.2,329.4,-0.7,1.8,2470.608,13.28,0.06,127.6
2021-11-12T05:49:03,42.805,6.029,0.012,-0.019,0.0,101.0,101.0,100.0,13.4,1505.2,329.4,-0.8,1.8,2470.618,13.28,0.022,147.7
2021-11-12T05:52:03,42.805,6.029,0.024,-0.036,-0.016,101.0,101.0,100.0,13.3,1505.2,330.0,-0.8,1.8,2470.632,13.28,0.043,146.3
2021-11-12T05:55:03,42.805,6.029,0.024,-0.049,-0.021,101.0,100.0,100.0,13.4,1505.2,329.3,-0.7,1.8,2470.628,13.28,0.054,153.9
2021-11-12T05:58:03,42.805,6.029,0.021,-0.039,0.018,102.0,100.0,100.0,13.4,1505.2,331.2,-0.7,1.8,2470.647,13.28,0.044,151.7
2021-11-12T06:04:03,42.805,6.029,0.03,-0.024,-0.016,101.0,100.0,100.0,13.4,1505.2,329.0,-0.7,1.8,2470.674,13.28,0.038,128.7
2021-11-12T06:07:03,42.805,6.029,0.009,-0.041,-0.019,102.0,101.0,99.0,13.3,1505.2,331.9,-0.8,1.9,2470.666,13.28,0.041,167.6
2021-11-12T06:10:03,42.805,6.029,0.014,-0.047,-0.029,100.0,101.0,101.0,13.4,1505.2,327.5,-0.8,1.8,2470.659,13.28,0.049,163.4
2021-11-12T06:13:03,42.805,6.029,0.02,-0.046,-0.021,101.0,101.0,101.0,13.4,1505.2,325.8,-0.7,1.8,2470.62,13.28,0.05,156.5
2021-11-12T06:16:03,42.805,6.029,0.005,-0.019,0.013,101.0,101.0,100.0,13.3,1505.2,328.2,-0.8,1.8,2470.671,13.28,0.019,165.3
2021-11-12T06:19:03,42.805,6.029,0.005,-0.03,-0.02,102.0,102.0,100.0,13.4,1505.2,327.6,-0.7,1.8,2470.672,13.28,0.03,170.5
2021-11-12T06:22:03,42.805,6.029,0.025,-0.036,-0.003,102.0,101.0,100.0,13.4,1505.2,330.1,-0.7,1.8,2470.64,13.28,0.043,145.2
2021-11-12T06:25:03,42.805,6.029,0.04,-0.023,0.0,102.0,101.0,100.0,13.4,1505.2,329.7,-0.7,1.8,2470.656,13.28,0.046,119.9
2021-11-12T06:28:03,42.805,6.029,0.024,-0.031,0.01,102.0,101.0,100.0,13.3,1505.2,329.0,-0.8,1.8,2470.618,13.28,0.039,142.3
2021-11-12T06:31:03,42.805,6.029,0.043,-0.055,-0.003,100.0,100.0,101.0,13.4,1505.2,329.4,-0.8,1.8,2470.628,13.28,0.069,142.0
2021-11-12T06:34:03,42.805,6.029,0.01,-0.029,-0.018,101.0,100.0,101.0,13.4,1505.2,326.4,-0.7,1.8,2470.574,13.28,0.03,161.0
2021-11-12T06:37:03,42.805,6.029,0.002,-0.048,-0.02,102.0,99.0,101.0,13.4,1505.2,326.2,-0.8,1.8,2470.583,13.28,0.048,177.6
2021-11-12T06:40:03,42.805,6.029,0.018,-0.043,-0.016,102.0,100.0,101.0,13.4,1505.2,328.3,-0.7,1.8,2470.645,13.28,0.046,157.3
2021-11-12T06:43:03,42.805,6.029,0.031,-0.052,-0.01,101.0,101.0,101.0,13.3,1505.2,327.3,-0.8,1.8,2470.617,13.28,0.06,149.2
2021-11-12T06:46:03,42.805,6.029,0.017,-0.053,-0.033,101.0,103.0,99.0,13.4,1505.2,328.5,-0.7,1.8,2470.608,13.28,0.055,162.2
2021-11-12T06:49:03,42.805,6.029,0.022,-0.034,-0.036,102.0,101.0,100.0,13.4,1505.2,327.6,-0.8,1.8,2470.658,13.28,0.04,147.1
2021-11-12T06:52:03,42.805,6.029,0.003,-0.016,0.008,102.0,100.0,100.0,13.4,1505.2,325.3,-0.8,1.8,2470.63,13.28,0.016,169.4
2021-11-12T06:55:03,42.805,6.029,0.034,-0.04,-0.006,101.0,101.0,100.0,13.4,1505.2,327.0,-0.8,1.9,2470.593,13.28,0.052,139.6
2021-11-12T06:58:03,42.805,6.029,0.017,-0.028,-0.01,102.0,100.0,102.0,13.4,1505.2,330.4,-0.8,1.9,2470.664,13.28,0.032,148.7
2021-11-12T07:04:03,42.805,6.029,0.009,-0.013,0.014,102.0,101.0,100.0,13.4,1505.2,327.7,-0.7,1.8,2470.649,13.28,0.015,145.3
2021-11-12T07:07:03,42.805,6.029,0.03,-0.043,-0.015,102.0,101.0,101.0,13.3,1505.2,324.6,-0.8,1.8,2470.666,13.28,0.052,145.1
2021-11-12T07:10:03,42.805,6.029,0.02,-0.022,0.01,100.0,101.0,102.0,13.4,1505.2,325.7,-0.7,1.8,2470.64,13.28,0.029,137.7
2021-11-12T07:13:03,42.805,6.029,0.033,-0.037,0.006,102.0,102.0,100.0,13.4,1505.2,330.1,-0.7,1.8,2470.645,13.28,0.049,138.3
2021-11-12T07:16:03,42.805,6.029,0.024,-0.044,-0.023,103.0,101.0,101.0,13.4,1505.2,326.7,-0.8,1.8,2470.661,13.28,0.05,151.4
2021-11-12T07:19:03,42.805,6.029,0.024,-0.044,0.002,102.0,100.0,100.0,13.3,1505.2,330.9,-0.8,1.9,2470.613,13.28,0.05,151.4
2021-11-12T07:22:03,42.805,6.029,0.014,-0.017,-0.013,101.0,101.0,100.0,13.4,1505.2,327.5,-0.8,1.8,2470.608,13.28,0.022,140.5
2021-11-12T07:25:03,42.805,6.029,0.046,-0.047,0.003,101.0,102.0,100.0,13.4,1505.2,330.4,-0.8,1.8,2470.644,13.28,0.065,135.6
2021-11-12T07:28:03,42.805,6.029,0.021,-0.038,-0.034,102.0,101.0,100.0,13.4,1505.2,325.6,-0.8,1.8,2470.651,13.28,0.043,151.1
2021-11-12T07:31:03,42.805,6.029,0.016,-0.042,-0.015,101.0,101.0,101.0,13.4,1505.2,331.1,-0.8,1.8,2470.606,13.28,0.044,159.1
2021-11-12T07:34:03,42.805,6.029,0.017,-0.055,-0.018,100.0,101.0,100.0,13.4,1505.2,326.6,-0.7,1.8,2470.617,13.28,0.057,162.8
2021-11-12T07:37:03,42.805,6.029,0.035,-0.043,-0.015,103.0,100.0,100.0,13.4,1505.2,326.8,-0.8,1.8,2470.613,13.28,0.055,140.9
2021-11-12T07:40:03,42.805,6.029,0.008,-0.031,0.008,101.0,101.0,100.0,13.3,1505.2,329.6,-0.8,1.8,2470.637,13.28,0.032,165.5
2021-11-12T07:43:03,42.805,6.029,0.011,-0.039,-0.019,101.0,102.0,100.0,13.3,1505.2,328.3,-0.8,1.8,2470.629,13.28,0.04,164.3
2021-11-12T07:46:03,42.805,6.029,0.009,-0.008,-0.008,102.0,101.0,101.0,13.4,1505.2,325.7,-0.7,1.8,2470.613,13.28,0.012,131.6
2021-11-12T07:49:03,42.805,6.029,0.025,-0.029,-0.009,99.0,101.0,101.0,13.4,1505.2,331.2,-0.8,1.8,2470.589,13.28,0.038,139.2
2021-11-12T07:52:03,42.805,6.029,0.016,-0.05,-0.023,100.0,100.0,101.0,13.4,1505.2,328.8,-0.8,1.8,2470.632,13.28,0.052,162.3
2021-11-12T07:55:03,42.805,6.029,0.011,-0.027,-0.027,101.0,100.0,101.0,13.4,1505.2,326.3,-0.8,1.8,2470.613,13.28,0.029,157.8
2021-11-12T07:58:03,42.805,6.029,0.007,-0.02,-0.013,101.0,102.0,100.0,13.4,1505.2,326.5,-0.8,1.8,2470.652,13.28,0.021,160.7
2021-11-12T08:04:03,42.805,6.029,0.039,-0.042,-0.015,101.0,101.0,100.0,13.4,1505.2,326.1,-0.7,1.8,2470.679,13.28,0.057,137.1
2021-11-12T08:07:03,42.805,6.029,0.016,-0.043,-0.01,100.0,100.0,101.0,13.4,1505.2,327.2,-0.7,1.9,2470.661,13.28,0.045,159.6
2021-11-12T08:10:03,42.805,6.029,0.033,-0.044,-0.002,100.0,101.0,100.0,13.3,1505.2,328.4,-0.8,1.8,2470.661,13.28,0.055,143.1
2021-11-12T08:13:03,42.805,6.029,0.01,-0.026,0.003,100.0,102.0,100.0,13.3,1505.2,327.4,-0.7,1.9,2470.652,13.28,0.027,159.0
2021-11-12T08:16:03,42.805,6.029,0.013,-0.018,-0.008,101.0,101.0,100.0,13.3,1505.2,331.7,-0.8,1.8,2470.615,13.28,0.022,144.2
2021-11-12T08:19:03,42.805,6.029,0.029,-0.027,-0.018,103.0,100.0,100.0,13.4,1505.2,331.4,-0.7,1.9,2470.618,13.28,0.039,133.0
2021-11-12T08:22:03,42.805,6.029,0.015,-0.047,-0.04,101.0,101.0,100.0,13.4,1505.2,329.2,-0.8,1.8,2470.639,13.28,0.049,162.3
2021-11-12T08:25:03,42.805,6.029,0.015,-0.026,-0.007,101.0,101.0,100.0,13.4,1505.2,329.2,-0.8,1.8,2470.631,13.28,0.03,150.0
2021-11-12T08:28:03,42.805,6.029,0.014,-0.053,-0.04,102.0,101.0,100.0,13.4,1505.2,329.3,-0.8,1.8,2470.639,13.28,0.054,165.2
2021-11-12T08:31:03,42.805,6.029,0.026,-0.045,-0.012,101.0,101.0,100.0,13.4,1505.2,325.3,-0.7,1.8,2470.644,13.28,0.051,150.0
2021-11-12T08:34:03,42.805,6.029,0.035,-0.048,-0.054,101.0,101.0,99.0,13.4,1505.2,328.0,-0.8,1.8,2470.668,13.28,0.059,143.9
2021-11-12T08:37:03,42.805,6.029,0.016,-0.047,-0.005,100.0,101.0,100.0,13.4,1505.2,326.8,-0.8,1.8,2470.612,13.28,0.049,161.2
2021-11-12T08:40:03,42.805,6.029,-0.004,-0.028,-0.059,101.0,101.0,100.0,13.4,1505.2,325.4,-0.8,1.9,2470.64,13.28,0.028,188.1
2021-11-12T08:43:03,42.805,6.029,0.033,-0.04,-0.03,101.0,100.0,100.0,13.4,1505.2,329.6,-0.7,1.8,2470.658,13.28,0.051,140.5
2021-11-12T08:46:03,42.805,6.029,0.028,-0.041,-0.013,103.0,100.0,99.0,13.4,1505.2,327.1,-0.7,1.8,2470.592,13.28,0.049,145.7
2021-11-12T08:49:03,42.805,6.029,0.027,-0.025,0.025,100.0,102.0,101.0,13.3,1505.2,327.0,-0.7,1.8,2470.679,13.28,0.036,132.8
2021-11-12T08:52:03,42.805,6.029,0.024,-0.026,0.003,100.0,102.0,100.0,13.4,1505.2,327.4,-0.7,1.9,2470.645,13.28,0.035,137.3
2021-11-12T08:55:03,42.805,6.029,0.02,-0.043,0.008,101.0,101.0,99.0,13.4,1505.2,329.7,-0.8,1.8,2470.657,13.28,0.047,155.1
2021-11-12T08:58:03,42.805,6.029,0.021,-0.038,-0.016,101.0,100.0,101.0,13.4,1505.2,328.5,-0.7,1.8,2470.656,13.28,0.043,151.1
2021-11-12T09:04:03,42.805,6.029,0.032,-0.05,-0.014,101.0,100.0,100.0,13.4,1505.2,329.5,-0.8,1.8,2470.645,13.28,0.059,147.4
2021-11-12T09:07:03,42.805,6.029,0.02,-0.07,-0.069,101.0,100.0,100.0,13.4,1505.2,328.5,-0.7,1.8,2470.681,13.28,0.072,164.1
2021-11-12T09:10:03,42.805,6.029,0.013,-0.014,-0.031,101.0,100.0,100.0,13.4,1505.2,326.1,-0.7,1.8,2470.659,13.28,0.019,137.1
2021-11-12T09:13:03,42.805,6.029,0.003,-0.026,-0.019,102.0,99.0,100.0,13.4,1505.2,326.8,-0.7,1.9,2470.678,13.28,0.026,173.4
2021-11-12T09:16:03,42.805,6.029,0.002,-0.029,0.0,102.0,101.0,100.0,13.3,1505.2,329.2,-0.7,1.8,2470.676,13.28,0.029,176.1
2021-11-12T09:19:03,42.805,6.029,0.036,-0.034,-0.019,101.0,100.0,100.0,13.4,1505.2,325.4,-0.8,1.8,2470.653,13.28,0.049,133.4
2021-11-12T09:22:03,42.805,6.029,0.029,-0.047,-0.017,101.0,103.0,100.0,13.3,1505.2,327.5,-0.7,1.8,2470.677,13.28,0.055,148.3
2021-11-12T09:25:03,42.805,6.029,0.025,-0.046,-0.014,102.0,100.0,99.0,13.4,1505.2,325.6,-0.7,1.8,2470.72,13.28,0.052,151.5
2021-11-12T09:28:03,42.805,6.029,0.01,-0.033,-0.01,102.0,100.0,99.0,13.4,1505.2,328.9,-0.8,1.8,2470.689,13.28,0.034,163.1
2021-11-12T09:31:03,42.805,6.029,0.015,-0.043,-0.02,102.0,100.0,100.0,13.3,1505.2,329.5,-0.7,1.8,2470.694,13.28,0.045,160.8
2021-11-12T09:34:03,42.805,6.029,0.011,-0.032,-0.011,101.0,101.0,100.0,13.4,1505.2,330.0,-0.8,1.8,2470.714,13.28,0.033,161.0
2021-11-12T09:37:03,42.805,6.029,0.029,-0.028,-0.023,100.0,101.0,101.0,13.3,1505.2,330.2,-0.8,1.8,2470.701,13.28,0.04,134.0
2021-11-12T09:40:03,42.805,6.029,0.021,-0.031,-0.009,100.0,101.0,101.0,13.3,1505.2,328.0,-0.8,1.8,2470.727,13.28,0.037,145.9
2021-11-12T09:43:03,42.805,6.029,0.039,-0.038,0.0,101.0,101.0,100.0,13.4,1505.2,325.6,-0.8,1.8,2470.656,13.28,0.054,134.3
2021-11-12T09:46:03,42.805,6.029,0.019,-0.048,-0.029,102.0,101.0,100.0,13.4,1505.2,328.3,-0.8,1.9,2470.684,13.28,0.051,158.4
2021-11-12T09:49:03,42.805,6.029,0.014,-0.038,0.002,102.0,101.0,100.0,13.4,1505.2,326.8,-0.8,1.8,2470.629,13.28,0.04,159.8
2021-11-12T09:52:03,42.805,6.029,0.023,-0.033,0.006,101.0,102.0,100.0,13.4,1505.2,329.5,-0.8,1.8,2470.662,13.28,0.04,145.1
2021-11-12T09:55:03,42.805,6.029,0.006,-0.033,-0.002,101.0,100.0,100.0,13.4,1505.2,331.0,-0.7,1.9,2470.661,13.28,0.033,169.7